Weather History for Tunica, MS

Change the Weather History Date:

Monday, May 13, 2013

  Actual Average (KMEM) Record (KMEM)
Temperature  
Mean Temperature 62 °F 71 °F  
Max Temperature 77 °F 80 °F 95 °F (1916)
Min Temperature 46 °F 61 °F 45 °F (1997)
Degree Days  
Heating Degree Days 4 1  
Month to date heating degree days 14  
Since 1 July heating degree days 2959  
Cooling Degree Days 0 7  
Month to date cooling degree days 68  
Year to date cooling degree days 163  
Growing Degree Days 12 (Base 50)    
Moisture  
Dew Point 46 °F    
Average Humidity 62    
Maximum Humidity 100    
Minimum Humidity 32    
Precipitation  
Precipitation 0.00 in 0.17 in 2.30 in (1905)
Month to date precipitation 2.40  
Year to date precipitation 21.43  
Snow  
Snow 0.00 in 0.00 in - ()
Month to date snowfall 0.0  
Since 1 July snowfall 3.8  
Snow Depth -    
Sea Level Pressure  
Sea Level Pressure 30.21 in    
Wind  
Wind Speed 4 mph (South)    
Max Wind Speed 15 mph    
Max Gust Speed 20 mph    
Visibility 10 miles    
Events      
T = Trace of Precipitation, MM = Missing Value Source: NWS Daily Summary

Daily Weather History Graph

Daily Weather History Graph

Search for Another Location

Airport:

Trip Planner

Search our weather history database for the weather conditions in past years. The results will help you decide how hot, cold, wet, or windy it might be!

Date:

Astronomy

May. 13, 2013 Rise Set
Actual Time 5:59 AM CDT 7:56 PM CDT
Civil Twilight 5:32 AM CDT 8:23 PM CDT
Nautical Twilight 4:58 AM CDT 8:57 PM CDT
Astronomical Twilight 4:22 AM CDT 9:33 PM CDT
Moon 8:46 AM CDT (5/13) 11:05 PM CDT (5/13)
Length of Visible Light 14h 51m
Length of Day
13h 56m
Waxing Crescent, 12% of the Moon is Illuminated
May 13
Waxing Crescent
May 17
First Quarter
May 24
Full
May 31
Last Quarter
Jun 8
New

Hourly Weather History & Observations

Time (CDT) Temp. Windchill Dew Point Humidity Pressure Visibility Wind Dir Wind Speed Gust Speed Precip Events Conditions
12:35 AM 50.0 °F - 42.8 °F 76% 30.21 in 10.0 mi Calm Calm - N/A   Clear
12:55 AM 51.8 °F - 42.8 °F 71% 30.21 in 10.0 mi Calm Calm - N/A   Clear
1:15 AM 50.0 °F - 44.6 °F 82% 30.20 in 10.0 mi Calm Calm - N/A   Clear
1:35 AM 50.0 °F - 44.6 °F 82% 30.20 in 10.0 mi Calm Calm - N/A   Clear
1:55 AM 50.0 °F - 42.8 °F 76% 30.20 in 10.0 mi South 3.5 mph - N/A   Clear
2:15 AM 48.2 °F - 44.6 °F 87% 30.20 in 10.0 mi Calm Calm - N/A   Clear
2:35 AM 48.2 °F - 42.8 °F 82% 30.20 in 10.0 mi Calm Calm - N/A   Clear
2:55 AM 48.2 °F - 44.6 °F 87% 30.20 in 10.0 mi Calm Calm - N/A   Clear
3:15 AM 50.0 °F - 44.6 °F 82% 30.20 in 10.0 mi Calm Calm - N/A   Clear
3:35 AM 48.2 °F - 44.6 °F 87% 30.20 in 10.0 mi Calm Calm - N/A   Clear
3:55 AM 46.4 °F 45.2 °F 44.6 °F 93% 30.20 in 10.0 mi SSE 3.5 mph - N/A   Clear
4:15 AM 46.4 °F - 42.8 °F 87% 30.20 in 10.0 mi Calm Calm - N/A   Clear
4:35 AM 46.4 °F - 44.6 °F 93% 30.20 in 10.0 mi Calm Calm - N/A   Clear
4:55 AM 46.4 °F - 44.6 °F 93% 30.20 in 10.0 mi Calm Calm - N/A   Clear
5:15 AM 46.4 °F 44.3 °F 44.6 °F 93% 30.20 in 10.0 mi SE 4.6 mph - N/A   Clear
5:35 AM 46.4 °F - 44.6 °F 93% 30.21 in 10.0 mi Calm Calm - N/A   Clear
5:55 AM 46.4 °F - 44.6 °F 93% 30.22 in 10.0 mi Calm Calm - N/A   Scattered Clouds
6:15 AM 46.4 °F - 44.6 °F 93% 30.22 in 10.0 mi Calm Calm - N/A   Scattered Clouds
6:35 AM 46.4 °F - 44.6 °F 93% 30.23 in 10.0 mi Calm Calm - N/A   Clear
6:55 AM 46.4 °F - 46.4 °F 100% 30.25 in 10.0 mi Calm Calm - N/A   Scattered Clouds
7:15 AM 50.0 °F - 48.2 °F 94% 30.25 in 10.0 mi SSE 3.5 mph - N/A   Clear
7:35 AM 51.8 °F - 48.2 °F 88% 30.25 in 10.0 mi SE 5.8 mph - N/A   Clear
7:55 AM 53.6 °F - 48.2 °F 82% 30.26 in 10.0 mi South 4.6 mph - N/A   Clear
8:15 AM 55.4 °F - 48.2 °F 77% 30.27 in 10.0 mi South 5.8 mph - N/A   Clear
8:35 AM 59.0 °F - 44.6 °F 59% 30.28 in 10.0 mi South 8.1 mph - N/A   Clear
8:55 AM 60.8 °F - 44.6 °F 55% 30.29 in 10.0 mi South 6.9 mph - N/A   Clear
9:15 AM 62.6 °F - 44.6 °F 52% 30.29 in 10.0 mi South 5.8 mph - N/A   Clear
9:35 AM 64.4 °F - 42.8 °F 45% 30.30 in 10.0 mi SSW 5.8 mph - N/A   Clear
9:55 AM 64.4 °F - 42.8 °F 45% 30.29 in 10.0 mi South 5.8 mph - N/A   Clear
10:15 AM 66.2 °F - 44.6 °F 46% 30.29 in 10.0 mi South 8.1 mph - N/A   Clear
10:35 AM 68.0 °F - 44.6 °F 43% 30.30 in 10.0 mi SSW 9.2 mph - N/A   Clear
10:55 AM 68.0 °F - 42.8 °F 40% 30.30 in 10.0 mi SW 4.6 mph - N/A   Clear
11:15 AM 68.0 °F - 44.6 °F 43% 30.29 in 10.0 mi South 3.5 mph - N/A   Clear
11:35 AM 69.8 °F - 42.8 °F 38% 30.29 in 10.0 mi SSE 4.6 mph - N/A   Clear
11:55 AM 69.8 °F - 44.6 °F 40% 30.28 in 10.0 mi SSW 3.5 mph - N/A   Clear
12:15 PM 71.6 °F - 46.4 °F 41% 30.27 in 10.0 mi South 6.9 mph - N/A   Clear
12:35 PM 71.6 °F - 44.6 °F 38% 30.26 in 10.0 mi South 8.1 mph - N/A   Clear
12:55 PM 71.6 °F - 46.4 °F 41% 30.26 in 10.0 mi South 8.1 mph - N/A   Clear
1:15 PM 73.4 °F - 46.4 °F 38% 30.25 in 10.0 mi South 5.8 mph - N/A   Clear
1:35 PM 73.4 °F - 44.6 °F 36% 30.24 in 10.0 mi SW 9.2 mph - N/A   Clear
1:55 PM 73.4 °F - 46.4 °F 38% 30.23 in 10.0 mi SSW 6.9 mph - N/A   Clear
2:15 PM 73.4 °F - 46.4 °F 38% 30.23 in 10.0 mi South 10.4 mph - N/A   Clear
2:35 PM 73.4 °F - 46.4 °F 38% 30.22 in 10.0 mi SW 10.4 mph - N/A   Clear
3:35 PM 75.2 °F - 46.4 °F 36% 30.20 in 10.0 mi South 8.1 mph - N/A   Clear
3:55 PM 77.0 °F - 44.6 °F 32% 30.18 in 10.0 mi SW 10.4 mph 17.3 mph N/A   Clear
4:15 PM 77.0 °F - 46.4 °F 34% 30.18 in 10.0 mi SW 9.2 mph 18.4 mph N/A   Clear
4:35 PM 77.0 °F - 46.4 °F 34% 30.16 in 10.0 mi SW 12.7 mph - N/A   Clear
4:55 PM 77.0 °F - 46.4 °F 34% 30.16 in 10.0 mi South 8.1 mph - N/A   Clear
5:15 PM 77.0 °F - 46.4 °F 34% 30.15 in 10.0 mi SSW 12.7 mph 19.6 mph N/A   Clear
5:35 PM 77.0 °F - 46.4 °F 34% 30.15 in 10.0 mi SSW 10.4 mph - N/A   Clear
5:55 PM 75.2 °F - 46.4 °F 36% 30.14 in 10.0 mi SSW 15.0 mph - N/A   Clear
6:35 PM 75.2 °F - 46.4 °F 36% 30.14 in 10.0 mi SW 10.4 mph - N/A   Clear
7:15 PM 71.6 °F - 50.0 °F 46% 30.15 in 10.0 mi SSW 5.8 mph - N/A   Clear
7:35 PM 71.6 °F - 50.0 °F 46% 30.15 in 10.0 mi SSW 5.8 mph - N/A   Clear
7:55 PM 69.8 °F - 50.0 °F 49% 30.15 in 10.0 mi SSW 5.8 mph - N/A   Clear
8:15 PM 68.0 °F - 50.0 °F 52% 30.16 in 10.0 mi South 4.6 mph - N/A   Clear
8:35 PM 68.0 °F - 50.0 °F 52% 30.16 in 10.0 mi SSE 5.8 mph - N/A   Clear
8:55 PM 64.4 °F - 50.0 °F 59% 30.16 in 10.0 mi SSE 6.9 mph - N/A   Clear
9:15 PM 62.6 °F - 51.8 °F 68% 30.16 in 10.0 mi South 8.1 mph - N/A   Clear
9:35 PM 60.8 °F - 53.6 °F 77% 30.16 in 10.0 mi SSE 6.9 mph - N/A   Clear
9:55 PM 60.8 °F - 51.8 °F 72% 30.16 in 10.0 mi South 6.9 mph - N/A   Clear
10:15 PM 60.8 °F - 51.8 °F 72% 30.16 in 10.0 mi South 6.9 mph - N/A   Clear
10:35 PM 60.8 °F - 51.8 °F 72% 30.16 in 10.0 mi South 8.1 mph - N/A   Clear
10:55 PM 60.8 °F - 51.8 °F 72% 30.16 in 10.0 mi South 6.9 mph - N/A   Clear
11:15 PM 62.6 °F - 51.8 °F 68% 30.16 in 10.0 mi South 6.9 mph - N/A   Clear
11:35 PM 62.6 °F - 51.8 °F 68% 30.15 in 10.0 mi South 5.8 mph - N/A   Clear
11:55 PM 60.8 °F - 51.8 °F 72% 30.15 in 10.0 mi South 6.9 mph - N/A   Clear